User: anonymous   Login
Location: Newsoms
(36.6240°N, 77.1250°W)
Time: 03:17:19
(UTC-05:00)
Language:

BREEZE-M DEB (TANK) - Orbit

View from above orbital plane
View from above orbital plane
View from above satellite
View from above satellite

Ground track
Ground track

The orbit data is extracted from the following two-line orbital elements,

1 29649U 06056B   15027.38224546  .00002769  00000-0  66527-3 0   978
2 29649 049.4633 148.6119 5392149 339.4967 022.0200 04.95853834144335
Epoch (UTC): 27 January 2015 09:10:26
Eccentricity: 0.5392149
inclination: 49.4633°
perigee height: 315 km
apogee height: 15981 km
right ascension of ascending node: 148.6119°
argument of perigee: 339.4967°
revolutions per day: 4.95853834
mean anomaly at epoch: 22.0200°
orbit number at epoch: 14433

The dashed part of the orbit path shows where the satellite is in the earth's shadow,  

DLR